Location: Luxembourg
(49.6117°N, 6.1300°E)
Time: 17:43:43
(UTC+02:00)

HTV-X1 - Visible Passes

Search period start: 13 May 2026 00:00
Search period end: 23 May 2026 00:00
Orbit: 373 x 383 km, 51.6° (Epoch: 12 May)

Date Brightness Start Highest point End Pass type
(mag) Time Alt. Az. Time Alt. Az. Time Alt. Az.
13 May ? 00:59:21 10° WNW 01:01:07 30° WNW 01:01:07 30° WNW visible
13 May ? 22:22:20 10° WSW 22:25:25 82° NNW 22:28:31 10° ENE visible
13 May ? 23:58:25 10° WNW 00:01:28 57° N 00:02:31 35° ENE visible
14 May ? 01:34:22 10° WNW 01:34:37 12° WNW 01:34:37 12° WNW visible
14 May ? 22:57:26 10° W 23:00:29 57° N 23:03:33 10° ENE visible
15 May ? 00:33:26 10° WNW 00:35:54 52° WNW 00:35:54 52° WNW visible
15 May ? 21:56:25 10° W 21:59:30 69° N 22:02:34 10° ENE visible
15 May ? 23:32:30 10° WNW 23:35:34 61° N 23:37:07 25° E visible
16 May ? 01:08:26 10° WNW 01:09:13 16° W 01:09:13 16° W visible
16 May ? 22:31:30 10° W 22:34:32 56° N 22:37:35 10° E visible
17 May ? 00:07:27 10° WNW 00:10:23 76° WSW 00:10:23 76° WSW visible
17 May ? 23:06:28 10° WNW 23:09:33 71° NNE 23:11:32 20° E visible
18 May ? 00:42:28 10° W 00:43:37 19° W 00:43:37 19° W visible
18 May ? 22:05:27 10° WNW 22:08:30 58° N 22:11:33 10° E visible
18 May ? 23:41:22 10° WNW 23:44:26 60° SSW 23:44:45 55° S visible
19 May ? 22:40:21 10° WNW 22:43:27 85° NNE 22:45:53 15° ESE visible
20 May ? 00:16:30 10° W 00:17:58 19° WSW 00:17:58 19° WSW visible
20 May ? 23:15:15 10° WNW 23:18:12 43° SSW 23:19:06 32° SSE visible
21 May ? 22:14:08 10° WNW 22:17:14 75° SSW 22:20:13 10° ESE visible
21 May ? 23:50:37 10° W 23:52:18 16° SW 23:52:18 16° SW visible
22 May ? 22:49:05 10° W 22:51:51 31° SSW 22:53:27 19° SSE visible
